Location: Cherry Springs State Park
(41.6616°N, 77.8240°W)
Time: 09:25:02
(UTC-05:00)

Amateur Radio Satellites - All Passes

Search period start: 23 November 2014 08:55
Search period end: 24 November 2014 08:55
Location: Cherry Springs State Park, 41.6616°N, 77.8240°W

Satellite Date Start Highest point End Downlink Frequencies (MHz)
Time Altitude Azimuth
DUCHIFAT 1 23 Nov 08:55:39 08:56:57 11° 62° (ENE) 08:58:14 145.980
UNISAT 6 23 Nov 08:57:04 08:59:48 17° 65° (ENE) 09:02:33 437.425
AAUSAT CUBESAT 2 23 Nov 09:02:25 09:06:22 37° 98° (E) 09:10:18 437.432
CANX-2 23 Nov 09:02:26 09:06:42 65° 101° (E) 09:10:58 2200.000
DOVE 4 23 Nov 09:05:23 09:09:05 30° 97° (E) 09:12:50 437.250
NANOSAT C BR1 23 Nov 09:12:49 09:15:38 17° 65° (ENE) 09:18:27 145.865
ZACube-1 23 Nov 09:14:41 09:15:34 11° 90° (E) 09:16:27 437.345
COMPASS 1 23 Nov 09:15:19 09:19:31 60° 101° (E) 09:23:43 437.405
HO-68 23 Nov 09:17:25 09:24:38 77° 105° (ESE) 09:31:47 435.675
QB50P1 23 Nov 09:21:46 09:25:01 22° 67° (ENE) 09:28:16 145.935-145.965
GONETS M04 23 Nov 09:22:13 09:30:54 63° 282° (WNW) 09:39:42
DELFI C3 23 Nov 09:23:49 09:27:23 27° 96° (E) 09:30:55 145.870
ANTELSAT 23 Nov 09:24:11 09:27:59 32° 70° (ENE) 09:31:47 437.575/2403.000
GOMX 1 23 Nov 09:32:38 09:36:48 86° 102° (ESE) 09:41:00 467.674
CUTE 1.7 & AOD 2 23 Nov 09:37:37 09:41:49 55° 286° (WNW) 09:46:00 437.475
POPSAT HIP 1 23 Nov 09:45:18 09:49:15 38° 71° (ENE) 09:53:12 437.405
BRITE-PL 23 Nov 09:45:31 09:49:31 48° 287° (WNW) 09:53:31 437.365/2234.400
BUGSAT 1 23 Nov 09:48:11 09:52:02 34° 70° (ENE) 09:55:53 437.445
FUNcube-1 23 Nov 09:48:19 09:51:52 26° 96° (E) 09:55:27 145.935
UKube-1 23 Nov 09:50:07 09:54:24 55° 101° (E) 09:58:38 .
CUBEBUG 2 23 Nov 09:59:18 10:03:23 47° 99° (E) 10:07:32 437.445
Oscar 11 23 Nov 10:03:46 10:08:08 88° 283° (WNW) 10:12:29 145.826/435.025
CINEMA 3 23 Nov 10:04:12 10:08:24 87° 103° (ESE) 10:12:42 145.822/145.860
UWE-3 23 Nov 10:06:06 10:10:12 48° 100° (E) 10:14:21 435.000/436.395/437.385
SEEDS 23 Nov 10:15:13 10:18:44 25° 292° (WNW) 10:22:15 437.485
POLYITAN 1 23 Nov 10:16:32 10:20:49 87° 77° (ENE) 10:25:06 437.675
QB50P2 23 Nov 10:19:50 10:24:07 87° 257° (WSW) 10:28:24 145.880/145.840
TIGRISAT 23 Nov 10:20:06 10:24:20 62° 259° (W) 10:28:34 435.000
DX 1 23 Nov 10:22:32 10:26:51 63° 286° (WNW) 10:31:08 434.975-435.025
ESTCUBE 1 23 Nov 10:27:06 10:30:07 17° 92° (E) 10:33:06 437.505/2401.250
DUCHIFAT 1 23 Nov 10:27:59 10:32:15 72° 258° (WSW) 10:36:30 145.980
UNISAT 6 23 Nov 10:32:11 10:36:17 44° 261° (W) 10:40:23 437.425
SHINDAISAT 23 Nov 10:35:58 10:37:29 30° 119° (ESE) 10:39:01 437.305
VELOX 1 23 Nov 10:38:35 10:42:58 59° 101° (E) 10:47:19 145.980
AAUSAT CUBESAT 2 23 Nov 10:38:47 10:41:48 19° 294° (WNW) 10:44:48 437.432
CANX-2 23 Nov 10:40:21 10:42:06 12° 297° (WNW) 10:43:52 2200.000
DOVE 4 23 Nov 10:43:33 10:46:44 22° 292° (WNW) 10:49:57 437.250
NANOSAT C BR1 23 Nov 10:47:09 10:51:12 43° 261° (W) 10:55:16 145.865
ZACube-1 23 Nov 10:48:11 10:52:21 65° 285° (WNW) 10:56:35 437.345
COMPASS 1 23 Nov 10:52:51 10:54:45 13° 297° (WNW) 10:56:40 437.405
HUMSAT D 23 Nov 10:54:35 10:58:46 90° 142° (SE) 11:02:57 437.325/437.525
QB50P1 23 Nov 10:56:50 11:00:43 33° 263° (W) 11:04:36 145.935-145.965
DELFI C3 23 Nov 10:59:13 11:02:35 24° 292° (WNW) 11:05:57 145.870
ANTELSAT 23 Nov 11:01:32 11:04:51 22° 266° (W) 11:08:10 437.575/2403.000
AISAT 23 Nov 11:02:54 11:07:20 74° 285° (WNW) 11:11:43 437.250
50 SAT 23 Nov 11:04:03 11:08:07 84° 284° (WNW) 11:12:12 437.505
HO-68 23 Nov 11:06:21 11:11:35 22° 304° (WNW) 11:16:48 435.675
Oscar 19 23 Nov 11:15:08 11:16:24 11° 57° (ENE) 11:17:40 437.125/150
POPSAT HIP 1 23 Nov 11:22:17 11:25:17 19° 267° (W) 11:28:18 437.405
BUGSAT 1 23 Nov 11:24:23 11:27:36 21° 266° (W) 11:30:50 437.445
FUNcube-1 23 Nov 11:24:39 11:28:10 27° 291° (WNW) 11:31:45 145.935
GONETS M04 23 Nov 11:26:27 11:29:50 12° 305° (NW) 11:33:13
CUBEBUG 1 23 Nov 11:27:19 11:31:43 73° 102° (ESE) 11:36:02 437.445
UKube-1 23 Nov 11:27:42 11:30:07 15° 297° (WNW) 11:32:30 .
TISAT 1 23 Nov 11:28:26 11:31:22 18° 93° (E) 11:34:17 437.305
SPROUT 23 Nov 11:28:49 11:31:33 17° 92° (E) 11:34:17 437.525
SO-50 23 Nov 11:30:51 11:33:30 14° 36° (NE) 11:36:09 436.795
CUBEBUG 2 23 Nov 11:37:14 11:39:45 16° 295° (WNW) 11:42:17 437.445
UWE-3 23 Nov 11:43:57 11:46:23 15° 295° (WNW) 11:48:51 435.000/436.395/437.385
YUBILEINY 23 Nov 11:49:12 11:52:14 12° 55° (NE) 11:55:16 435.215
ITAMSAT 1 23 Nov 12:00:40 12:02:39 12° 58° (ENE) 12:04:38 435.822/435.867
ESTCUBE 1 23 Nov 12:02:52 12:07:14 46° 288° (WNW) 12:11:32 437.505/2401.250
VELOX 1 23 Nov 12:16:43 12:19:04 14° 298° (WNW) 12:21:25 145.980
ITUPSAT 1 23 Nov 12:28:34 12:30:40 13° 90° (E) 12:32:44 437.325
SWISSCUBE 23 Nov 12:39:41 12:43:02 19° 93° (E) 12:46:21 437.505
DANDE 23 Nov 12:39:41 12:40:48 12° 94° (E) 12:41:53 436.750
Oscar 19 23 Nov 12:49:47 12:54:53 82° 75° (ENE) 13:00:02 437.125/150
AO-7 23 Nov 12:49:53 12:51:02 10° 40° (NE) 12:52:12 29.400- 29.500
TISAT 1 23 Nov 13:03:27 13:07:21 37° 289° (WNW) 13:11:13 437.305
SPROUT 23 Nov 13:03:48 13:07:51 42° 288° (WNW) 13:11:53 437.525
CUBEBUG 1 23 Nov 13:06:01 13:07:28 12° 299° (WNW) 13:08:55 437.445
SO-50 23 Nov 13:09:59 13:14:52 76° 56° (NE) 13:19:46 436.795
BEESAT 23 Nov 13:10:38 13:15:02 35° 97° (E) 13:19:24 436.000
AUBIESAT-1 23 Nov 13:19:25 13:24:14 54° 105° (ESE) 13:28:58 437.475
M-CUBED/EXP-1 PRIME 23 Nov 13:22:28 13:27:22 63° 106° (ESE) 13:32:12 437.505
ITAMSAT 1 23 Nov 13:36:06 13:41:20 87° 75° (ENE) 13:46:35 435.822/435.867
YUBILEINY 23 Nov 13:42:30 13:51:09 62° 78° (ENE) 13:59:42 435.215
Gurwin Techsat 1B 23 Nov 13:51:05 13:56:21 69° 73° (ENE) 14:01:39 435.225
STARS 23 Nov 13:52:06 13:53:59 13° 91° (E) 13:55:51 437.465
ITUPSAT 1 23 Nov 14:04:14 14:09:02 69° 286° (WNW) 14:13:47 437.325
CUSAT 1 23 Nov 14:09:07 14:11:06 18° 285° (WNW) 14:13:00 437.405
SWISSCUBE 23 Nov 14:16:31 14:21:08 47° 289° (WNW) 14:25:42 437.505
DANDE 23 Nov 14:22:20 14:24:09 15° 285° (WNW) 14:25:52 436.750
KKS-1 23 Nov 14:24:40 14:28:54 42° 99° (E) 14:33:06 437.445
VERMONT LUNAR 23 Nov 14:29:38 14:30:15 10° 145° (SE) 14:30:52 437.305
Oscar 19 23 Nov 14:33:12 14:34:50 11° 271° (W) 14:36:29 437.125/150
AO-7 23 Nov 14:33:58 14:41:41 45° 62° (ENE) 14:49:26 29.400- 29.500
HORYU 2 23 Nov 14:38:28 14:42:54 90° 256° (WSW) 14:47:21 437.375
BEESAT 23 Nov 14:48:47 14:52:43 26° 294° (WNW) 14:56:37 436.000
SO-50 23 Nov 14:52:25 14:54:49 14° 252° (WSW) 14:57:13 436.795
AUBIESAT-1 23 Nov 14:55:14 14:58:49 21° 301° (WNW) 15:02:23 437.475
M-CUBED/EXP-1 PRIME 23 Nov 14:58:36 15:01:55 18° 302° (WNW) 15:05:13 437.505
ITAMSAT 1 23 Nov 15:20:08 15:21:29 11° 272° (W) 15:22:50 435.822/435.867
STARS 23 Nov 15:26:31 15:30:51 59° 287° (WNW) 15:35:09 437.465
Gurwin Techsat 1B 23 Nov 15:33:50 15:36:48 15° 270° (W) 15:39:47 435.225
MaSat-1 23 Nov 15:34:29 15:37:28 47° 113° (ESE) 15:40:12 437.345
YUBILEINY 23 Nov 15:40:16 15:47:16 28° 278° (W) 15:54:16 435.215
PHONESAT 2.4 23 Nov 15:42:33 15:45:33 23° 153° (SSE) 15:48:34 2401.200-2431.200
JAS-2 23 Nov 15:48:35 15:55:37 43° 66° (ENE) 16:02:54 435.910
RS-15 23 Nov 15:51:41 16:01:52 46° 110° (ESE) 16:11:59 29.354- 29.394
Cubesat XI-IV 23 Nov 15:57:21 15:58:53 11° 56° (ENE) 16:00:25 437.490
KKS-1 23 Nov 16:02:08 16:05:14 19° 295° (WNW) 16:08:19 437.445
VERMONT LUNAR 23 Nov 16:04:44 16:08:07 38° 160° (SSE) 16:11:31 437.305
O/OREOS (USA 219) 23 Nov 16:13:11 16:17:39 67° 66° (ENE) 16:22:06 437.305
AO-7 23 Nov 16:26:44 16:34:27 43° 261° (W) 16:42:16 29.400- 29.500
CUTE-I 23 Nov 16:36:21 16:40:37 25° 64° (ENE) 16:44:53 437.470
MOZHAYETS 4 23 Nov 16:45:25 16:49:48 39° 97° (E) 16:54:08
PHONESAT 2.4 23 Nov 17:20:20 17:24:01 62° 169° (S) 17:27:41 2401.200-2431.200
PRISM 23 Nov 17:22:54 17:25:39 17° 93° (E) 17:28:24 437.425
Cubesat XI-IV 23 Nov 17:32:43 17:38:04 78° 74° (ENE) 17:43:28 437.490
JAS-2 23 Nov 17:33:28 17:40:31 43° 264° (W) 17:47:56 435.910
GONETS M04 23 Nov 17:38:03 17:42:15 14° 56° (ENE) 17:46:24
VERMONT LUNAR 23 Nov 17:42:48 17:46:26 74° 176° (S) 17:50:04 437.305
STRAND 1 23 Nov 17:45:36 17:47:31 12° 89° (E) 17:49:26 437.568
O/OREOS (USA 219) 23 Nov 17:55:04 17:56:25 11° 263° (W) 17:57:46 437.305
RS-15 23 Nov 18:03:22 18:14:00 55° 313° (NW) 18:24:45 29.354- 29.394
HO-68 23 Nov 18:04:04 18:06:31 12° 48° (NE) 18:08:57 435.675
CUTE-I 23 Nov 18:15:17 18:20:24 45° 261° (W) 18:25:33 437.470
CUBESAT XI-V 23 Nov 18:19:14 18:23:14 27° 95° (E) 18:27:10 437.345
MOZHAYETS 4 23 Nov 18:23:12 18:26:47 22° 294° (WNW) 18:30:21
PCSat 23 Nov 18:45:18 18:46:37 11° 101° (ESE) 18:47:56 145.827
PRISM 23 Nov 18:57:23 19:01:24 42° 289° (WNW) 19:05:23 437.425
CUTE 1.7 & AOD 2 23 Nov 18:58:55 18:59:39 10° 61° (ENE) 19:00:23 437.475
PHONESAT 2.4 23 Nov 18:59:01 19:02:44 71° 186° (S) 19:06:27 2401.200-2431.200
GOMX 1 23 Nov 19:06:58 19:08:03 11° 62° (ENE) 19:09:07 467.674
Cubesat XI-IV 23 Nov 19:16:16 19:18:45 13° 271° (W) 19:21:14 437.490
BRITE-PL 23 Nov 19:19:05 19:22:48 21° 67° (ENE) 19:26:19 437.365/2234.400
VERMONT LUNAR 23 Nov 19:21:16 19:24:50 55° 193° (SSW) 19:28:24 437.305
STRAND 1 23 Nov 19:22:10 19:27:18 79° 286° (WNW) 19:32:22 437.568
GONETS M04 23 Nov 19:32:08 19:40:59 68° 79° (E) 19:49:42
SEEDS 23 Nov 19:32:40 19:35:50 21° 67° (ENE) 19:39:00 437.485
DX 1 23 Nov 19:45:16 19:46:57 12° 61° (ENE) 19:48:39 434.975-435.025
HO-68 23 Nov 19:45:44 19:52:45 59° 68° (ENE) 19:59:47 435.675
AIST 1 23 Nov 19:49:52 19:54:09 57° 94° (E) 19:58:30
AAUSAT CUBESAT 2 23 Nov 19:54:30 19:58:01 27° 69° (ENE) 20:01:32 437.432
CANX-2 23 Nov 19:55:54 19:59:56 47° 73° (ENE) 20:04:01 2200.000
CUBESAT XI-V 23 Nov 19:56:33 20:00:38 30° 291° (WNW) 20:04:41 437.345
COMPASS 1 23 Nov 20:07:26 20:11:22 42° 72° (ENE) 20:15:19 437.405
DOVE 4 23 Nov 20:11:25 20:15:39 35° 71° (ENE) 20:19:41 437.250
DELFI C3 23 Nov 20:13:44 20:16:37 19° 66° (ENE) 20:19:31 145.870
RS-15 23 Nov 20:21:22 20:29:38 23° 344° (NNW) 20:38:02 29.354- 29.394
PCSat 23 Nov 20:23:44 20:29:09 86° 118° (ESE) 20:34:36 145.827
AISAT 23 Nov 20:28:21 20:29:42 11° 60° (ENE) 20:31:03 437.250
CUTE 1.7 & AOD 2 23 Nov 20:30:45 20:34:57 76° 258° (WSW) 20:39:12 437.475
PHONESAT 2.4 23 Nov 20:37:57 20:41:19 33° 203° (SSW) 20:44:40 2401.200-2431.200
GOMX 1 23 Nov 20:40:41 20:45:36 86° 257° (WSW) 20:50:11 467.674
BEESAT 3 23 Nov 20:44:35 20:48:38 61° 119° (ESE) 20:52:45 437.485
FUNcube-1 23 Nov 20:45:19 20:48:34 22° 68° (ENE) 20:51:47 145.935
UKube-1 23 Nov 20:45:29 20:49:41 49° 72° (ENE) 20:53:54 .
BRITE-PL 23 Nov 20:56:09 21:01:04 45° 261° (W) 21:05:39 437.365/2234.400
BEESAT 2 23 Nov 20:57:48 21:01:54 77° 121° (ESE) 21:06:05 435.950
CUBEBUG 2 23 Nov 20:58:16 21:02:18 41° 72° (ENE) 21:06:16 437.445
Oscar 11 23 Nov 20:58:42 21:02:59 73° 75° (ENE) 21:07:18 145.826/435.025
VERMONT LUNAR 23 Nov 21:00:17 21:02:55 19° 209° (SSW) 21:05:32 437.305
UWE-3 23 Nov 21:03:59 21:07:59 41° 72° (ENE) 21:11:56 435.000/436.395/437.385
STRAND 1 23 Nov 21:04:41 21:05:36 11° 303° (WNW) 21:06:31 437.568
CINEMA 3 23 Nov 21:06:21 21:10:48 83° 76° (ENE) 21:15:06 145.822/145.860
SEEDS 23 Nov 21:07:42 21:11:28 33° 263° (W) 21:15:17 437.485
DX 1 23 Nov 21:18:14 21:22:37 71° 258° (WSW) 21:27:01 434.975-435.025
AIST 2 23 Nov 21:20:38 21:24:49 66° 120° (ESE) 21:29:05 435.215
ESTCUBE 1 23 Nov 21:27:37 21:30:39 18° 64° (ENE) 21:33:42 437.505/2401.250
AIST 1 23 Nov 21:30:07 21:32:13 13° 292° (WNW) 21:34:21
GONETS M04 23 Nov 21:30:10 21:36:58 26° 279° (W) 21:43:45
AAUSAT CUBESAT 2 23 Nov 21:30:14 21:33:39 25° 265° (W) 21:37:06 437.432
CANX-2 23 Nov 21:33:49 21:36:09 15° 269° (W) 21:38:31 2200.000
HO-68 23 Nov 21:34:57 21:40:49 27° 266° (W) 21:46:44 435.675
VELOX 1 23 Nov 21:36:40 21:41:02 55° 73° (ENE) 21:45:26 145.980
ZACube-1 23 Nov 21:44:36 21:48:51 80° 258° (WSW) 21:53:03 437.345
COMPASS 1 23 Nov 21:44:45 21:47:19 16° 268° (W) 21:49:53 437.405
HUMSAT D 23 Nov 21:47:11 21:51:17 65° 75° (ENE) 21:55:23 437.325/437.525
DELFI C3 23 Nov 21:47:58 21:51:41 35° 263° (W) 21:55:27 145.870
DOVE 4 23 Nov 21:49:50 21:53:29 22° 265° (W) 21:57:00 437.250
50 SAT 23 Nov 21:53:13 21:57:12 63° 75° (ENE) 22:01:12 437.505
AISAT 23 Nov 22:01:12 22:05:42 80° 257° (WSW) 22:10:12 437.250
POLYITAN 1 23 Nov 22:03:59 22:06:13 14° 91° (E) 22:08:27 437.675
QB50P2 23 Nov 22:06:51 22:09:21 15° 92° (E) 22:11:49 145.880/145.840
PCSat 23 Nov 22:09:41 22:13:17 18° 318° (NW) 22:16:54 145.827
TIGRISAT 23 Nov 22:11:58 22:15:40 26° 96° (E) 22:19:24 435.000
DUCHIFAT 1 23 Nov 22:14:16 22:17:10 18° 93° (E) 22:20:03 145.980
FUNcube-1 23 Nov 22:21:00 22:24:46 31° 263° (W) 22:28:31 145.935
TISAT 1 23 Nov 22:22:09 22:24:45 16° 64° (ENE) 22:27:21 437.305
UKube-1 23 Nov 22:23:35 22:26:07 15° 268° (W) 22:28:40 .
CUBEBUG 1 23 Nov 22:23:43 22:28:07 63° 74° (ENE) 22:32:32 437.445
UNISAT 6 23 Nov 22:23:54 22:27:58 35° 98° (E) 22:32:06 437.425
SPROUT 23 Nov 22:24:15 22:26:38 15° 64° (ENE) 22:29:02 437.525
BEESAT 3 23 Nov 22:24:32 22:27:16 17° 318° (NW) 22:30:01 437.485
NANOSAT C BR1 23 Nov 22:32:38 22:36:19 29° 96° (E) 22:39:58 145.865
CUBEBUG 2 23 Nov 22:36:26 22:39:12 17° 267° (W) 22:41:56 437.445
BEESAT 2 23 Nov 22:38:23 22:40:44 15° 320° (NW) 22:43:06 435.950
RS-15 23 Nov 22:38:35 22:47:17 25° 20° (NNE) 22:56:11 29.354- 29.394
UWE-3 23 Nov 22:41:59 22:44:43 17° 267° (W) 22:47:26 435.000/436.395/437.385
QB50P1 23 Nov 22:41:59 22:45:55 36° 98° (E) 22:49:49 145.935-145.965
ANTELSAT 23 Nov 22:52:06 22:56:32 72° 102° (ESE) 23:01:03 437.575/2403.000
AIST 2 23 Nov 23:01:06 23:03:54 17° 319° (NW) 23:06:43 435.215
CUSAT 1 23 Nov 23:02:20 23:05:22 18° 75° (ENE) 23:08:59 437.405
ESTCUBE 1 23 Nov 23:02:46 23:07:09 48° 261° (W) 23:11:35 437.505/2401.250
BUGSAT 1 23 Nov 23:05:50 23:09:53 56° 101° (E) 23:13:52 437.445
POPSAT HIP 1 23 Nov 23:06:15 23:10:28 70° 102° (ESE) 23:14:40 437.405
VELOX 1 23 Nov 23:15:35 23:17:58 14° 269° (W) 23:20:21 145.980
DANDE 23 Nov 23:16:56 23:20:05 20° 76° (ENE) 23:23:55 436.750
ITUPSAT 1 23 Nov 23:35:40 23:38:41 17° 62° (ENE) 23:41:42 437.325
ISS 23 Nov 23:35:55 23:38:31 22° 134° (SE) 23:41:07 145.825
POLYITAN 1 23 Nov 23:38:23 23:42:28 49° 287° (WNW) 23:46:32 437.675
QB50P2 23 Nov 23:41:28 23:45:31 45° 288° (WNW) 23:49:33 145.880/145.840
SWISSCUBE 23 Nov 23:46:44 23:50:29 23° 65° (ENE) 23:54:15 437.505
TIGRISAT 23 Nov 23:48:35 23:52:24 30° 291° (WNW) 23:56:16 435.000
DUCHIFAT 1 23 Nov 23:49:17 23:53:11 38° 289° (WNW) 23:57:04 145.980
TISAT 1 23 Nov 23:56:05 00:00:13 48° 260° (W) 00:04:22 437.305
SPROUT 23 Nov 23:58:03 00:02:17 54° 260° (W) 00:06:32 437.525
UNISAT 6 24 Nov 00:01:10 00:04:35 22° 293° (WNW) 00:08:03 437.425
CUBEBUG 1 24 Nov 00:03:05 00:04:54 12° 270° (W) 00:06:42 437.445
NANOSAT C BR1 24 Nov 00:08:41 00:12:05 24° 292° (WNW) 00:15:29 145.865
AUBIESAT-1 24 Nov 00:09:22 00:13:19 69° 69° (ENE) 00:17:40 437.475
M-CUBED/EXP-1 PRIME 24 Nov 00:12:51 00:16:48 82° 71° (ENE) 00:21:11 437.505
BEESAT 24 Nov 00:17:28 00:21:57 42° 70° (ENE) 00:26:28 436.000
QB50P1 24 Nov 00:18:32 00:21:34 20° 294° (WNW) 00:24:35 145.935-145.965
ANTELSAT 24 Nov 00:31:06 00:32:47 12° 298° (WNW) 00:34:28 437.575/2403.000
BUGSAT 1 24 Nov 00:43:05 00:44:54 13° 297° (WNW) 00:46:43 437.445
CUSAT 1 24 Nov 00:44:10 00:48:27 49° 262° (W) 00:54:10 437.405
POPSAT HIP 1 24 Nov 00:44:34 00:45:48 11° 298° (WNW) 00:47:01 437.405
STARS 24 Nov 00:50:17 00:52:15 13° 62° (ENE) 00:54:14 437.465
RS-15 24 Nov 00:51:29 01:02:34 62° 50° (NE) 01:14:06 29.354- 29.394
YUBILEINY 24 Nov 00:53:23 00:56:42 13° 73° (ENE) 01:00:00 435.215
DANDE 24 Nov 00:59:28 01:03:30 40° 263° (W) 01:08:50 436.750
Oscar 19 24 Nov 01:01:35 01:06:01 28° 95° (E) 01:10:26 437.125/150
ITUPSAT 1 24 Nov 01:11:22 01:16:06 58° 259° (W) 01:20:52 437.325
ISS 24 Nov 01:11:48 01:14:59 45° 331° (NNW) 01:18:10 145.825
MaSat-1 24 Nov 01:13:15 01:15:34 82° 246° (WSW) 01:17:57 437.345
KKS-1 24 Nov 01:23:16 01:27:26 40° 71° (ENE) 01:31:37 437.445
SWISSCUBE 24 Nov 01:23:36 01:28:06 40° 262° (W) 01:32:38 437.505
AUBIESAT-1 24 Nov 01:48:38 01:48:56 10° 268° (W) 01:49:15 437.475
ITAMSAT 1 24 Nov 01:49:16 01:53:49 30° 96° (E) 01:58:19 435.822/435.867
BEESAT 24 Nov 01:56:21 01:59:57 21° 266° (W) 02:03:35 436.000
Gurwin Techsat 1B 24 Nov 02:07:38 02:12:06 27° 95° (E) 02:16:31 435.225
STARS 24 Nov 02:23:49 02:28:12 66° 258° (WSW) 02:32:36 437.465
HORYU 2 24 Nov 02:31:00 02:34:01 18° 93° (E) 02:37:01 437.375
AO-7 24 Nov 02:38:50 02:41:14 11° 86° (E) 02:43:37 29.400- 29.500
Oscar 19 24 Nov 02:40:43 02:45:23 35° 292° (WNW) 02:50:02 437.125/150
YUBILEINY 24 Nov 02:43:02 02:51:46 71° 93° (E) 03:00:30 435.215
ISS 24 Nov 02:50:04 02:52:15 16° 350° (N) 02:54:26 145.825
KKS-1 24 Nov 03:01:04 03:04:14 19° 267° (W) 03:07:25 437.445
RS-15 24 Nov 03:04:21 03:14:31 42° 252° (WSW) 03:25:08 29.354- 29.394
SO-50 24 Nov 03:26:04 03:29:33 22° 111° (ESE) 03:33:06 436.795
ITAMSAT 1 24 Nov 03:28:40 03:33:17 33° 293° (WNW) 03:37:52 435.822/435.867
PCSat 24 Nov 03:29:45 03:32:32 14° 38° (NE) 03:35:19 145.827
Gurwin Techsat 1B 24 Nov 03:47:14 03:52:08 39° 291° (WNW) 03:57:01 435.225
MOZHAYETS 4 24 Nov 03:47:48 03:52:00 37° 70° (ENE) 03:56:15
HORYU 2 24 Nov 04:06:38 04:10:54 44° 289° (WNW) 04:15:10 437.375
PRISM 24 Nov 04:15:00 04:17:14 14° 63° (ENE) 04:19:30 437.425
AO-7 24 Nov 04:27:08 04:35:29 67° 105° (ESE) 04:43:47 29.400- 29.500
ISS 24 Nov 04:27:39 04:29:52 16° 11° (N) 04:32:04 145.825
YUBILEINY 24 Nov 04:42:20 04:49:22 26° 294° (WNW) 04:56:25 435.215
JAS-2 24 Nov 04:43:52 04:50:17 34° 93° (E) 04:56:01 435.910
STRAND 1 24 Nov 05:00:59 05:04:39 20° 63° (ENE) 05:08:19 437.568
BEESAT 3 24 Nov 05:04:30 05:08:30 42° 52° (NE) 05:12:27 437.485
SO-50 24 Nov 05:05:29 05:09:48 43° 309° (NW) 05:14:16 436.795
PCSat 24 Nov 05:11:31 05:16:58 71° 59° (ENE) 05:22:21 145.827
BEESAT 2 24 Nov 05:18:01 05:22:09 51° 53° (NE) 05:26:14 435.950
CUBESAT XI-V 24 Nov 05:23:04 05:27:05 28° 68° (ENE) 05:31:07 437.345
MOZHAYETS 4 24 Nov 05:25:49 05:29:20 22° 267° (W) 05:32:54
AIST 2 24 Nov 05:42:37 05:46:48 47° 53° (NE) 05:50:55 435.215
PRISM 24 Nov 05:48:14 05:52:20 54° 259° (W) 05:56:30 437.425
Cubesat XI-IV 24 Nov 05:50:20 05:55:00 30° 96° (E) 05:59:38 437.490
AIST 1 24 Nov 05:58:20 06:00:55 15° 69° (ENE) 06:03:28
ISS 24 Nov 06:03:54 06:07:07 47° 30° (NNE) 06:10:19 145.825
AO-7 24 Nov 06:20:44 06:27:39 30° 304° (NW) 06:34:35 29.400- 29.500
O/OREOS (USA 219) 24 Nov 06:25:26 06:29:55 78° 111° (ESE) 06:34:24 437.305
JAS-2 24 Nov 06:28:39 06:35:27 44° 294° (WNW) 06:41:30 435.910
CUTE-I 24 Nov 06:31:57 06:37:17 72° 103° (ESE) 06:42:34 437.470
STRAND 1 24 Nov 06:38:24 06:43:25 53° 260° (W) 06:48:29 437.568
GONETS M04 24 Nov 06:42:05 06:46:18 15° 74° (ENE) 06:50:32
BEESAT 3 24 Nov 06:43:26 06:46:27 19° 249° (WSW) 06:49:25 437.485
PCSat 24 Nov 06:56:32 06:59:44 16° 256° (WSW) 07:02:55 145.827
BEESAT 2 24 Nov 06:57:30 07:00:02 16° 250° (WSW) 07:02:32 435.950
CUBESAT XI-V 24 Nov 07:00:17 07:04:26 30° 264° (W) 07:08:37 437.345
AIST 2 24 Nov 07:22:10 07:25:04 18° 250° (WSW) 07:27:57 435.215
Cubesat XI-IV 24 Nov 07:30:18 07:35:06 35° 293° (WNW) 07:39:51 437.490
AIST 1 24 Nov 07:34:39 07:38:53 47° 267° (W) 07:43:02
ISS 24 Nov 07:40:59 07:43:34 21° 226° (SW) 07:46:08 145.825
O/OREOS (USA 219) 24 Nov 08:07:56 08:09:53 13° 309° (NW) 08:11:51 437.305
CUTE-I 24 Nov 08:13:34 08:16:44 16° 300° (WNW) 08:19:53 437.470
CUTE 1.7 & AOD 2 24 Nov 08:17:03 08:20:04 19° 93° (E) 08:23:05 437.475
GONETS M04 24 Nov 08:32:45 08:41:31 78° 94° (E) 08:50:22
GOMX 1 24 Nov 08:43:02 08:46:23 23° 95° (E) 08:49:46 467.674
Oscar 11 24 Nov 08:47:45 08:49:51 13° 91° (E) 08:51:56 145.826/435.025
